This is the latest recevied weather packets stored in our database for station/object R2AKT-13. If no packets are shown the sender has not sent any weather packets the latest 10 day(s).
| Time | Temp. | Humidity | Pressure | Rain* | Wind** | Luminosity | Snow |
|---|---|---|---|---|---|---|---|
| 1777880519 | 19.44° C | 40% | 986.5 hPa | - | 0 m/s | - | - |
| 1777880024 | 19.44° C | 43% | 986.4 hPa | - | 0 m/s | - | - |
| 1777879514 | 17.78° C | 45% | 986.5 hPa | - | 0.45 m/s, 295° | - | - |
| 1777879002 | 18.89° C | 44% | 986.5 hPa | - | 0 m/s | - | - |
| 1777878449 | 18.33° C | 44% | 986.5 hPa | - | 0.45 m/s, 237° | - | - |
| 1777877929 | 17.78° C | 47% | 986.5 hPa | - | 0 m/s | - | - |
| 1777877394 | 17.22° C | 47% | 986.5 hPa | - | 0.45 m/s, 310° | - | - |
| 1777876814 | 16.67° C | 48% | 986.4 hPa | - | 0.45 m/s, 267° | - | - |
| 1777876234 | 16.67° C | 48% | 986.5 hPa | - | 0.89 m/s, 339° | - | - |
| 1777875719 | 17.22° C | 49% | 986.4 hPa | - | 0 m/s | - | - |
| 1777875234 | 17.78° C | 44% | 986.4 hPa | - | 0.45 m/s, 126° | - | - |
| 1777874669 | 17.78° C | 43% | 986.3 hPa | - | 0.45 m/s, 104° | - | - |
| 1777874119 | 17.78° C | 43% | 986.1 hPa | - | 0.45 m/s, 177° | - | - |
| 1777873544 | 17.78° C | 43% | 986.1 hPa | - | 0.45 m/s, 111° | - | - |
| 1777873004 | 17.22° C | 44% | 986.1 hPa | - | 0.45 m/s, 152° | - | - |
| 1777872434 | 16.67° C | 46% | 986 hPa | - | 0.45 m/s, 100° | - | - |
| 1777871954 | 16.11° C | 47% | 986 hPa | - | 0.89 m/s, 170° | - | - |
| 1777871379 | 16.11° C | 46% | 985.9 hPa | - | 0.45 m/s, 237° | - | - |
| 1777870824 | 16.11° C | 46% | 985.9 hPa | - | 0.45 m/s, 153° | - | - |
| 1777870294 | 15.56° C | 47% | 985.9 hPa | - | 0.45 m/s, 180° | - | - |
| 1777869734 | 15.56° C | 49% | 986 hPa | - | 0.45 m/s, 159° | - | - |
| 1777869204 | 16.11° C | 47% | 986 hPa | - | 0.89 m/s, 146° | - | - |
| 1777868714 | 15.56° C | 49% | 985.9 hPa | - | 0 m/s | - | - |
| 1777868209 | 15° C | 50% | 986 hPa | - | 0.45 m/s, 182° | - | - |
| 1777867639 | 13.89° C | 52% | 986 hPa | - | 0.89 m/s, 272° | - | - |
* Rain since midnight (hover to see other rain measurements)
** Current wind speed in m/s (hover to see current wind gust speed)